(181293) = 1999 XU79 = 2004 BN155 = 2006 PB12

Discovered at Palomar on 2006-08-13 by NEAT.

Orbit

Orbit type: Main Belt

Note: WebGL enabled browser required.

epoch2024-03-31.0
epoch JD2460400.5
perihelion date2021-10-10.91628
perihelion JD2459498.41628
argument of perihelion (°)182.24382
ascending node (°)201.42523
inclination (°)1.87321
eccentricity0.2295432
perihelion distance (AU)1.8425013
Tisserand w.r.t. Jupiter3.5
ΔV w.r.t. Earth (km/sec)8.5
semimajor axis (AU)2.3914402
mean anomaly (°)240.41491
mean daily motion (°/day)0.26651070
aphelion distance (AU)2.940
period (years)3.7
P-vector [x]0.91588726
P-vector [y]0.36881714
P-vector [z]0.15850691
Q-vector [x]-0.40125796
Q-vector [y]0.85283955
Q-vector [z]0.33415080
absolute magnitude17.04
phase slope0.15
uncertainty0
referenceMPEC 2024-E179
observations used698
oppositions16
arc length (days)10067
first opposition used1995
last opposition used2023
residual rms (arc-secs)0.69
perturbers coarse indicatorM-v
perturbers precise indicator003Ek
first observation date used1995-09-02.0
last observation date used2023-03-26.0
computer nameMPCLINUX
JD of orbit computation2455988.782843
perihelion JD uncertainty (days)4.3130E-05
argument of perihelion uncertainty (°)1.4974E-04
ascending node uncertainty (°)1.4900E-04
inclination uncertainty (°)6.8288E-06
eccentricity uncertainty 6.5816E-08
perihelion distance uncertainty (AU)1.5368E-07
Minimum Orbit Intersection Distances (in AU)
for orbit epoch: 2460400.5, reference: E2024-CI1
Mercury1.50492
Venus1.11894
Earth0.84613
Mars0.40439
Jupiter2.50784
Saturn6.62352
Uranus15.5842
Neptune27.7081

Observations

708 total observations over interval: 1995 09 02.35065 – 2023 03 26.376287
These data are available for download (format description).

Date (UT) J2000 RA J2000 Dec Magn Location Ref
1995 09 02.35065 23 53 05.01 +01 30 58.8 19.7 V 691 – Steward Observatory, Kitt Peak-Spacewatch MPS 178638
1995 09 02.35615 23 53 04.81 +01 30 57.1 19.5 V 691 – Steward Observatory, Kitt Peak-Spacewatch MPS 178638
1995 09 02.36230 23 53 04.60 +01 30 55.4 19.5 V 691 – Steward Observatory, Kitt Peak-Spacewatch MPS 178638
1999 12 07.30668 05 00 27.33 +19 44 47.1 19.1   704 – Lincoln Laboratory ETS, New Mexico MPS 8029
1999 12 07.32123 05 00 26.30 +19 44 44.8 18.9   704 – Lincoln Laboratory ETS, New Mexico MPS 8029
1999 12 07.33588 05 00 25.45 +19 44 43.8 19.4   704 – Lincoln Laboratory ETS, New Mexico MPS 8029
1999 12 07.35050 05 00 24.37 +19 44 41.4 18.8   704 – Lincoln Laboratory ETS, New Mexico MPS 8029
1999 12 08.34523 04 59 20.53 +19 42 28.8 20.1   704 – Lincoln Laboratory ETS, New Mexico MPS 8029
1999 12 08.35769 04 59 19.69 +19 42 26.1 20.0   704 – Lincoln Laboratory ETS, New Mexico MPS 8029
1999 12 08.37015 04 59 18.86 +19 42 24.0 19.4   704 – Lincoln Laboratory ETS, New Mexico MPS 8029
2004 01 28.20102 08 28 31.49 +15 54 54.7 20.1 V 691 – Steward Observatory, Kitt Peak-Spacewatch MPS 110707
2004 01 28.22902 08 28 29.65 +15 55 02.5 21.0 V 691 – Steward Observatory, Kitt Peak-Spacewatch MPS 110707
2004 01 28.25702 08 28 27.74 +15 55 09.4 20.4 V 691 – Steward Observatory, Kitt Peak-Spacewatch MPS 110707
2004 02 11.12486 08 14 43.03 +16 51 17.3 20.9 V 691 – Steward Observatory, Kitt Peak-Spacewatch MPS 110707
2004 02 11.15170 08 14 41.61 +16 51 23.5 20.7 V 691 – Steward Observatory, Kitt Peak-Spacewatch MPS 110707
2004 02 11.18001 08 14 40.09 +16 51 30.1 20.7 V 691 – Steward Observatory, Kitt Peak-Spacewatch MPS 110707
2005 04 17.35032 14 17 04.15 -13 06 54.8 20.9 V 691 – Steward Observatory, Kitt Peak-Spacewatch MPS 178638
2005 04 17.36908 14 17 03.15 -13 06 49.0 21.3 V 691 – Steward Observatory, Kitt Peak-Spacewatch MPS 178638
2005 04 17.38764 14 17 02.10 -13 06 43.3 21.1 V 691 – Steward Observatory, Kitt Peak-Spacewatch MPS 178638
2006 08 13.40210 22 21 59.12 -06 58 35.6 19.0 R 644 – Palomar Mountain/NEAT MPS 176102
2006 08 13.42509 22 21 58.06 -06 58 41.7 19.4 R 644 – Palomar Mountain/NEAT MPS 176102
2006 08 13.44623 22 21 57.07 -06 58 47.2 18.9 R 644 – Palomar Mountain/NEAT MPS 176102
2006 08 15.35269 22 20 32.36 -07 07 30.3 18.9 R 644 – Palomar Mountain/NEAT MPS 176102
2006 08 15.37479 22 20 31.29 -07 07 36.6 18.7 R 644 – Palomar Mountain/NEAT MPS 176102
2006 08 15.39579 22 20 30.27 -07 07 42.5 18.7 R 644 – Palomar Mountain/NEAT MPS 176102
2006 08 18.30857 22 18 13.28 -07 21 59.6 18.5 R 699 – Lowell Observatory-LONEOS MPS 176102
2006 08 18.32315 22 18 12.68 -07 22 06.5   699 – Lowell Observatory-LONEOS MPS 176102
2006 08 18.33775 22 18 11.91 -07 22 10.5   699 – Lowell Observatory-LONEOS MPS 176102
2006 08 18.35232 22 18 11.15 -07 22 15.8   699 – Lowell Observatory-LONEOS MPS 176102
2006 08 28.26679 22 09 47.08 -08 17 26.4 18.6 V 703 – Catalina Sky Survey MPS 177110
2006 08 28.27316 22 09 46.69 -08 17 29.0 18.8 V 703 – Catalina Sky Survey MPS 177110
2006 08 28.27960 22 09 46.36 -08 17 31.6 18.6 V 703 – Catalina Sky Survey MPS 177110
2006 08 28.28598 22 09 46.04 -08 17 34.0 18.8 V 703 – Catalina Sky Survey MPS 177110
2006 08 29.19472 22 08 59.27 -08 22 54.6 18.5   704 – Lincoln Laboratory ETS, New Mexico MPS 177110
2006 08 29.20598 22 08 58.58 -08 22 58.9 18.5   704 – Lincoln Laboratory ETS, New Mexico MPS 177110
2006 08 29.23968 22 08 56.75 -08 23 10.3 18.6   704 – Lincoln Laboratory ETS, New Mexico MPS 177110
2006 08 30.25864 22 08 04.18 -08 29 09.9 18.6   704 – Lincoln Laboratory ETS, New Mexico MPS 177110
2006 08 30.28064 22 08 02.87 -08 29 19.0 18.9   704 – Lincoln Laboratory ETS, New Mexico MPS 177110
2006 08 30.29168 22 08 02.28 -08 29 22.7 18.8   704 – Lincoln Laboratory ETS, New Mexico MPS 177110
2006 08 30.30263 22 08 01.72 -08 29 26.9 18.7   704 – Lincoln Laboratory ETS, New Mexico MPS 177110
2006 09 12.12555 21 58 00.35 -09 42 46.9 18.5 R 699 – Lowell Observatory-LONEOS MPS 178638
2006 09 12.13981 21 57 59.56 -09 42 51.5   699 – Lowell Observatory-LONEOS MPS 178638
2006 09 12.16101 21 57 58.81 -09 42 59.9   699 – Lowell Observatory-LONEOS MPS 178638
2006 09 12.17527 21 57 58.05 -09 43 04.2   699 – Lowell Observatory-LONEOS MPS 178638
2006 09 17.16957 21 54 56.62 -10 08 06.8 19.0   704 – Lincoln Laboratory ETS, New Mexico MPS 179388
2006 09 17.18118 21 54 56.20 -10 08 11.0 19.2   704 – Lincoln Laboratory ETS, New Mexico MPS 179388
2006 09 17.19278 21 54 55.68 -10 08 13.2 19.4   704 – Lincoln Laboratory ETS, New Mexico MPS 179388
2006 09 17.20440 21 54 55.24 -10 08 17.5 19.1   704 – Lincoln Laboratory ETS, New Mexico MPS 179388
2006 09 17.21655 21 54 54.96 -10 08 19.6 19.1   704 – Lincoln Laboratory ETS, New Mexico MPS 179388
2006 09 18.22651 21 54 23.25 -10 13 01.6 18.8 R 699 – Lowell Observatory-LONEOS MPS 179388
2006 09 18.24845 21 54 22.54 -10 13 07.4   699 – Lowell Observatory-LONEOS MPS 179388
2006 09 18.27040 21 54 21.70 -10 13 13.2   699 – Lowell Observatory-LONEOS MPS 179388
2006 09 18.29232 21 54 21.01 -10 13 19.1   699 – Lowell Observatory-LONEOS MPS 179388
2006 09 27.16963 21 51 07.99 -10 47 33.9 19.6 V G96 – Mt. Lemmon Survey MPS 181159
2006 09 27.17642 21 51 07.92 -10 47 35.0 19.7 V G96 – Mt. Lemmon Survey MPS 181159
2006 09 27.18347 21 51 07.77 -10 47 36.4 19.6 V G96 – Mt. Lemmon Survey MPS 181159
2006 09 27.19037 21 51 07.66 -10 47 37.7 19.6 V G96 – Mt. Lemmon Survey MPS 181159
2006 10 19.13920 21 55 13.44 -11 09 08.2 19.6 V G96 – Mt. Lemmon Survey MPS 182989
2006 10 19.14532 21 55 13.62 -11 09 07.8 19.5 V G96 – Mt. Lemmon Survey MPS 182989
2006 10 19.15157 21 55 13.80 -11 09 07.2 19.7 V G96 – Mt. Lemmon Survey MPS 182989
2006 10 19.15773 21 55 14.01 -11 09 06.9 19.7 V G96 – Mt. Lemmon Survey MPS 182989
2006 10 27.10858 22 00 50.32 -10 53 29.9 19.7 V G96 – Mt. Lemmon Survey MPS 185493
2006 10 27.11853 22 00 50.79 -10 53 28.1 19.6 V G96 – Mt. Lemmon Survey MPS 185493
2006 10 27.12851 22 00 51.26 -10 53 26.6 19.5 V G96 – Mt. Lemmon Survey MPS 185493
2006 10 27.13852 22 00 51.73 -10 53 24.9 19.7 V G96 – Mt. Lemmon Survey MPS 185493
2006 11 16.06648 22 22 45.04 -09 23 01.8 21.2 V G96 – Mt. Lemmon Survey MPS 187034
2006 11 16.07375 22 22 45.62 -09 22 59.4 20.4 V G96 – Mt. Lemmon Survey MPS 187034
2006 11 16.08107 22 22 46.20 -09 22 56.9 20.8 V G96 – Mt. Lemmon Survey MPS 187034
2006 11 16.08836 22 22 46.77 -09 22 53.8 20.4 V G96 – Mt. Lemmon Survey MPS 187034
2007 01 08.09843 23 54 07.27 -00 52 20.9 20.5 V G96 – Mt. Lemmon Survey MPS 195543
2007 01 08.10337 23 54 07.84 -00 52 16.2 21.1 V G96 – Mt. Lemmon Survey MPS 195543
2007 01 08.10837 23 54 08.49 -00 52 12.8 20.2 V G96 – Mt. Lemmon Survey MPS 195543
2007 01 08.11343 23 54 09.03 -00 52 09.4 20.6 V G96 – Mt. Lemmon Survey MPS 195543
2008 02 03.33306 10 59 41.03 +04 09 50.1 20.3 V 691 – Steward Observatory, Kitt Peak-Spacewatch MPS 236289
2008 02 03.35067 10 59 40.29 +04 09 54.8 20.5 V 691 – Steward Observatory, Kitt Peak-Spacewatch MPS 236289
2008 02 03.36830 10 59 39.53 +04 09 59.3 20.7 V 691 – Steward Observatory, Kitt Peak-Spacewatch MPS 236289
2008 02 11.35002 10 53 29.53 +04 48 26.7   691 – Steward Observatory, Kitt Peak-Spacewatch MPS 237575
2008 02 11.37111 10 53 28.41 +04 48 32.8   691 – Steward Observatory, Kitt Peak-Spacewatch MPS 237575
2008 02 11.38874 10 53 27.50 +04 48 38.2   691 – Steward Observatory, Kitt Peak-Spacewatch MPS 237575
2008 02 26.35728 10 39 39.06 +06 17 15.9 20.2 V G96 – Mt. Lemmon Survey MPS 239461
2008 02 26.36447 10 39 38.62 +06 17 18.3 20.1 V G96 – Mt. Lemmon Survey MPS 239461
2008 02 26.37172 10 39 38.19 +06 17 21.4 19.9 V G96 – Mt. Lemmon Survey MPS 239461
2008 02 26.37902 10 39 37.80 +06 17 23.8 20.3 V G96 – Mt. Lemmon Survey MPS 239461
2008 03 28.17037 10 14 53.48 +09 05 36.7 21.3 V G96 – Mt. Lemmon Survey MPS 244544
2008 03 28.17651 10 14 53.26 +09 05 38.1 21.2 V G96 – Mt. Lemmon Survey MPS 244544
2008 03 28.18305 10 14 53.05 +09 05 39.7 20.5 V G96 – Mt. Lemmon Survey MPS 244544
2008 03 28.18925 10 14 52.83 +09 05 40.7 20.6 V G96 – Mt. Lemmon Survey MPS 244544
2009 05 30.30249 15 39 23.61 -17 36 47.6 20.4 V G96 – Mt. Lemmon Survey MPS 288575
